Location: Bégole
(43.1574°N, 0.3291°E)
Time: 01:55:46
(UTC+00:00)

deb Delta 89 - Pass Details

Date: 22 February 2024
Orbit: 714 x 2021 km, 97.5° (Epoch: 13 April)

Event Time Altitude Azimuth Distance (km) Brightness Sun altitude
Rises 23:56:20 0° 25° (NNE) 5,472 ? -57.1°
Reaches altitude 10° 00:03:53 10° 57° (ENE) 4,456 ? -57.2°
Enters shadow 00:06:26 11° 70° (ENE) 4,325 ? -57.3°
